Вернуться в каталог

CZ-6A DEB

АктивенSSO
NORAD 55863·DEBRIS·🇨🇳 China

Запущен Nov 11, 2022 с Taiyuan Satellite Launch Center

Loading…

Ближайшие Пролёты (ближайшие 24 часа)

TLE

СвежийSource: Space-Track

Эпоха: Sep 13, 2026, 10:15 UTC

1 55863U 22151ZK  26256.42759439  .00001458  00000-0  76017-3 0  9994
2 55863  98.8333 254.6461 0055238  79.1692 281.5692 14.15287692191120

Отслеживайте CZ-6A DEB в реальном времени с AllMySat

Download on the App Store